SCP
0 0 0 0 0 0 0 0 0 0 0 0 0 0 0 0 0 0 0 0 0 0 0 0 0 0 0 0 0 0 0 0 0 0 0 0 1 1 1 1 1 1 1
0 0 0 0 0 0 0 0 0 0 0 0 0 0 0 0 0 0 0 0 0 0 0 0 0 0 0 0 1 1 1 1 0 0 0 0 0 1 1 1 1 1 1
0 0 0 0 0 1 0 0 0 0 0 0 0 0 0 0 0 0 0 0 0 0 0 0 0 0 0 0 0 1 1 1 1 0 0 0 0 1 1 1 1 2 1
0 0 0 0 0 0 0 0 1 0 1 1 0 0 0 0 0 0 0 0 0 0 0 0 0 0 0 0 0 0 1 1 1 1 1 1 0 1 1 1 1 2 2
0 0 0 0 0 0 0 0 1 0 0 0 0 0 0 0 0 0 0 0 0 0 0 0 0 0 0 0 0 0 0 0 0 1 0 0 0 0 1 1 1 1 2
0 0 0 0 0 0 0 0 0 1 1 1 1 0 0 0 0 0 0 0 0 0 0 0 0 0 0 0 0 0 0 0 0 1 0 0 0 0 1 1 1 1 1
0 0 0 0 0 0 0 0 0 0 0 1 1 1 0 0 0 0 0 0 0 0 0 0 0 0 0 0 0 0 0 0 0 0 1 0 1 1 1 1 1 1 1
0 0 0 0 0 0 0 0 0 0 0 0 1 1 0 0 0 0 -0 0 0 0 0 0 0 0 0 0 0 0 0 0 0 0 0 0 1 1 0 1 0 1 1
0 0 0 0 0 0 0 0 0 0 0 0 0 1 1 0 0 -0 -0 0 0 0 0 0 -0 0 0 0 0 0 0 0 0 0 0 0 0 0 0 0 1 1 1
0 0 0 0 0 0 0 0 0 0 0 0 0 1 0 0 0 -0 -0 -0 0 -0 0 0 0 0 0 0 0 0 1 1 0 0 1 0 0 0 0 0 0 0 1
0 0 0 0 0 0 0 0 0 0 0 0 0 0 0 0 0 -0 0 -0 -0 -0 0 0 0 0 0 0 0 0 0 0 1 1 1 1 0 0 0 0 0 0 0
0 0 0 0 0 0 0 0 0 0 0 0 0 0 -0 0 0 -0 -0 0 -0 0 0 0 0 0 0 0 0 0 0 0 1 1 1 1 0 0 0 0 0 0 0
0 0 0 0 0 0 0 0 0 0 0 0 0 0 0 -0 0 0 0 0 0 0 0 0 0 0 0 0 0 0 0 0 0 0 0 0 0 0 0 0 0 0 0
0 0 0 0 0 0 0 0 0 0 0 0 0 0 0 0 -0 0 0 0 0 0 0 0 0 0 0 0 0 0 0 0 0 0 0 0 0 0 0 0 0 0 0
0 0 0 0 0 0 0 0 0 0 0 0 0 0 0 0 -0 0 -0 -0 0 0 0 0 0 0 0 0 0 0 0 0 0 0 0 0 0 0 0 0 0 0 0
0 0 0 0 0 0 0 0 0 0 0 0 0 0 0 0 -0 -0 0 0 0 0 0 0 0 0 0 0 0 0 0 0 0 0 0 0 0 0 0 0 0 0 0
0 0 0 0 0 0 0 0 0 0 0 0 0 0 0 0 0 0 -0 -0 0 -0 0 0 0 0 0 0 0 0 0 0 0 0 0 0 0 0 0 0 0 0 0
0 0 0 0 0 0 0 0 0 0 0 0 0 0 0 0 0 0 -0 -0 -0 0 0 -0 0 0 0 0 0 0 0 0 0 0 0 0 0 0 0 0 0 0 0
0 0 0 0 0 0 0 0 0 0 0 0 0 0 0 0 0 0 -0 -0 -0 -0 -0 -0 -0 0 0 0 0 0 0 0 0 0 0 0 0 0 0 0 0 0 0
0 0 0 0 0 0 0 0 0 0 0 0 0 0 0 0 0 0 0 -0 -0 0 0 -0 0 -0 0 0 0 0 0 0 0 0 0 0 0 0 0 0 0 0 0
0 0 0 0 0 0 0 0 0 0 0 0 0 0 0 0 0 0 0 0 0 0 0 0 0 0 0 0 0 0 0 0 0 0 0 0 0 0 0 0 0 0 0
0 0 0 0 0 0 0 0 0 0 0 0 0 0 0 0 -0 0 0 0 0 0 0 0 -0 -0 -0 0 0 0 0 0 0 0 0 0 1 0 0 0 0 0 0
0 0 0 0 0 0 0 0 0 0 0 0 0 0 0 0 0 0 0 0 0 0 0 0 0 -0 -0 0 0 0 0 0 0 0 0 0 0 0 0 0 0 0 0
0 0 0 0 0 0 0 0 0 0 0 0 0 0 0 0 0 0 0 0 0 0 0 0 0 0 -0 0 0 0 0 0 0 0 0 0 0 0 0 0 0 0 0
0 0 0 0 0 0 0 0 0 0 0 0 0 0 0 0 0 0 0 0 0 0 0 0 -0 -0 -0 0 0 0 0 0 0 0 0 0 0 0 0 0 0 0 0
0 0 0 0 0 0 0 0 0 0 0 0 0 0 0 0 0 0 -0 0 0 0 0 0 -0 0 0 0 0 0 0 0 0 0 0 0 0 0 0 0 0 0 0
Wind_Speed_500mb
18 18 22 25 27 30 31 32 36 41 33 36 33 31 31 33 34 34 34 40 37 33 28 29 36 36 35 35 37 38 38 39 41 43 45 47 47 51 53 52 51 52 53
23 26 30 34 36 39 51 44 46 45 43 39 41 37 35 34 35 36 38 39 43 41 39 35 35 37 41 42 39 38 38 38 39 41 42 45 46 52 58 59 56 55 55
37 41 44 38 40 45 47 49 46 46 56 55 42 44 38 38 33 33 32 33 35 40 46 48 43 41 43 38 39 40 38 38 39 40 37 36 36 43 55 60 62 59 58
36 40 41 36 35 38 41 43 47 51 51 53 56 52 48 49 39 35 37 34 32 33 37 45 49 47 44 43 41 45 43 39 38 36 36 33 31 34 44 52 59 63 61
33 38 28 31 36 39 45 51 52 49 51 46 44 46 50 52 42 41 33 31 28 33 32 34 50 55 55 51 47 45 44 48 43 37 37 37 32 32 38 45 51 58 63
30 29 25 28 30 33 37 42 43 43 49 50 50 62 62 51 56 58 49 34 31 31 27 27 32 43 56 60 59 55 47 45 46 41 39 39 38 33 32 39 45 52 59
16 15 16 22 27 29 35 32 36 40 41 45 42 45 53 62 65 71 64 37 30 29 26 26 28 28 35 43 60 61 56 48 47 41 41 37 40 35 34 33 40 46 53
14 13 22 19 26 28 32 31 36 44 47 49 50 46 50 55 54 74 83 29 21 24 18 22 25 29 30 34 36 44 60 58 52 43 44 39 37 36 36 35 37 42 47
16 18 24 26 27 29 34 38 37 40 49 51 47 43 27 35 39 47 41 55 22 23 28 28 28 28 29 30 34 38 51 59 57 50 46 42 40 37 36 35 35 40 40
17 17 26 30 29 36 30 34 36 39 42 50 49 46 46 39 33 19 28 41 66 42 34 37 28 31 32 30 30 38 41 50 58 53 47 43 43 36 31 33 33 34 38
16 16 23 28 36 27 29 33 35 37 39 42 46 41 37 35 38 35 35 23 26 29 30 33 25 27 30 28 27 29 31 46 50 52 46 40 37 31 29 33 32 30 32
17 20 31 31 27 28 31 35 37 36 36 37 38 34 31 29 26 25 28 32 28 23 25 26 25 22 26 22 23 29 25 37 43 50 45 41 33 28 25 32 29 27 29
16 19 34 29 26 31 33 34 34 34 34 35 36 30 28 25 22 26 28 28 23 21 18 22 20 21 21 18 18 26 27 42 44 51 41 38 33 28 24 25 23 28 31
17 27 26 27 31 30 30 34 30 30 30 29 28 24 20 21 23 25 25 21 20 22 15 19 13 16 12 13 18 25 26 39 45 40 38 43 35 31 26 24 23 24 23
22 21 25 24 26 25 28 31 29 29 27 25 22 22 20 19 25 24 19 19 19 19 16 12 12 12 7 8 17 12 21 28 39 43 35 42 52 37 35 35 32 30 26
27 24 25 21 24 24 23 27 27 26 25 23 16 21 21 20 19 21 19 19 17 20 23 23 22 21 20 17 10 14 17 27 35 41 43 41 40 38 41 40 38 37 34
27 26 24 24 24 25 24 25 24 24 25 23 22 20 22 21 21 20 17 18 19 22 27 28 26 22 23 19 16 16 16 17 23 34 39 40 41 41 41 41 43 44 41
26 26 25 25 26 26 26 25 25 25 27 27 27 25 23 22 25 25 25 25 29 30 33 36 28 26 22 20 15 17 18 19 21 24 30 41 42 44 45 43 42 40 42
26 27 25 27 28 29 29 28 27 27 29 29 27 27 25 25 27 22 26 27 26 28 32 34 33 24 20 21 16 15 17 20 20 27 26 29 38 40 41 43 42 43 42
28 29 27 28 30 31 31 28 33 32 29 29 30 26 23 21 23 31 31 30 30 27 31 32 31 27 22 24 17 15 19 17 19 22 24 26 30 36 36 35 36 38 39
30 31 31 30 31 31 30 39 42 36 32 28 26 23 21 17 14 14 20 23 20 22 21 25 27 22 27 25 23 20 23 20 21 22 23 26 25 31 35 39 41 42 43
31 32 32 34 34 32 37 43 49 50 33 25 25 20 18 18 14 11 12 13 15 19 21 28 28 29 29 27 26 22 17 22 25 29 29 27 26 25 31 30 37 43 45
35 37 37 34 36 35 40 44 49 52 30 24 26 23 22 18 24 15 20 17 18 21 25 29 29 29 28 22 18 22 28 24 28 31 31 34 42 32 40 45 50 52 46
38 39 38 37 36 36 43 43 48 47 21 24 24 19 17 16 22 22 19 20 22 25 26 23 24 28 29 28 27 25 24 20 16 21 24 22 26 23 22 25 27 34 42
41 39 38 37 37 38 42 43 44 29 20 22 16 15 15 14 26 27 29 25 21 24 19 17 15 16 17 22 25 21 20 17 18 20 21 21 19 15 13 17 19 21 27
47 38 37 38 39 44 41 38 37 23 22 17 19 16 20 17 21 19 14 13 12 10 9 10 11 10 10 16 19 19 21 21 26 20 22 21 21 24 15 15 17 22 24
Wind_Direction_500mb
279 282 281 286 288 293 288 278 289 280 285 285 282 280 280 277 277 275 272 276 275 265 255 246 239 235 237 238 241 243 248 252 256 259 260 260 256 249 245 237 232 231 229
277 282 288 289 289 285 278 283 283 281 275 275 273 274 275 277 274 274 272 269 274 258 257 257 248 244 244 243 243 246 249 253 256 258 260 261 257 246 242 240 235 233 231
280 285 286 290 289 287 290 286 280 278 276 274 263 268 266 269 274 271 268 272 265 271 256 254 254 249 243 242 244 246 247 253 251 252 254 260 263 253 241 238 236 233 234
285 293 283 284 282 294 303 296 291 284 282 279 272 258 255 268 262 252 264 261 267 254 260 260 246 243 244 242 246 247 246 248 255 258 253 255 265 262 248 241 237 235 234
293 296 289 297 300 303 301 297 297 292 288 283 281 276 264 267 259 260 248 253 269 268 249 248 252 244 244 245 246 249 256 250 253 259 257 250 257 264 255 244 238 237 235
299 301 306 305 308 309 305 304 306 301 296 289 279 275 268 250 268 260 245 245 252 260 267 255 255 255 246 244 245 245 252 253 246 256 259 258 251 254 259 250 242 239 238
314 329 321 318 322 321 317 321 317 312 303 299 295 288 281 273 271 259 302 234 245 259 265 263 254 256 251 260 245 242 241 245 245 249 257 262 247 250 258 257 246 243 240
332 337 324 333 319 325 319 313 318 313 304 302 297 292 290 293 291 284 287 302 245 255 274 278 267 255 249 248 253 249 237 237 240 245 249 253 242 254 259 257 250 244 242
331 331 327 327 327 330 316 319 315 315 309 303 295 284 291 285 299 302 304 307 344 279 281 291 279 262 257 250 250 258 246 235 236 240 244 246 249 259 265 252 250 244 244
328 330 332 330 332 332 321 320 317 317 313 306 301 295 283 279 287 305 305 284 279 287 291 292 275 268 260 257 251 247 238 236 230 237 234 240 247 258 256 247 247 245 242
341 340 341 335 331 336 325 324 324 319 322 314 308 306 297 286 273 266 292 282 275 255 286 290 281 264 261 257 251 255 255 234 226 219 226 233 250 250 243 249 247 241 244
329 322 336 337 338 334 329 333 326 327 323 322 311 302 291 288 280 275 273 279 267 289 286 284 276 269 262 256 250 248 247 224 212 213 217 225 232 243 244 246 240 241 244
321 318 336 336 340 336 336 332 330 335 328 320 309 304 297 292 300 290 280 283 287 292 285 282 273 265 264 257 240 244 228 212 205 209 212 237 237 234 242 244 247 246 245
328 324 334 335 337 339 336 339 340 331 327 327 322 305 308 293 294 296 289 297 296 279 289 270 264 262 266 257 236 241 235 219 213 210 231 238 238 237 238 243 252 249 253
322 316 330 330 331 328 335 342 340 335 326 332 329 313 314 303 292 291 297 289 294 302 295 313 287 281 276 227 224 226 229 238 224 226 228 228 226 235 236 240 244 250 249
328 324 326 323 325 321 324 329 336 331 332 329 324 310 311 301 287 278 272 276 280 281 288 290 297 300 292 278 249 224 236 233 231 230 227 226 228 234 237 245 247 245 249
323 321 322 321 322 321 320 320 327 330 323 323 320 315 303 300 286 283 277 272 275 280 274 281 287 293 290 283 249 234 239 236 245 243 238 237 237 235 237 239 244 246 245
320 319 315 317 319 319 318 317 319 317 317 311 308 306 300 292 281 273 268 267 265 262 269 278 282 287 287 272 260 243 221 231 230 247 238 235 234 234 238 239 242 238 237
313 318 311 311 315 315 317 318 317 314 310 301 299 297 296 293 285 276 266 262 265 270 269 280 284 277 271 274 259 249 231 224 227 236 237 232 233 234 238 241 241 235 233
303 314 310 306 307 311 312 315 314 312 309 302 295 289 289 289 284 272 263 260 262 263 262 277 280 277 269 265 259 251 245 230 227 236 236 225 238 235 235 237 235 234 234
295 302 307 306 303 306 315 307 318 313 305 296 290 286 287 283 313 308 287 271 269 262 260 267 271 269 263 259 249 247 250 247 232 226 232 234 237 246 246 241 239 236 238
293 293 299 303 302 303 297 317 320 322 304 292 281 277 281 289 293 298 297 282 277 267 274 269 269 264 261 258 254 252 258 256 249 242 237 233 224 237 230 225 234 236 241
295 294 295 298 299 298 302 319 320 322 293 279 282 277 274 272 269 266 299 286 275 282 281 275 269 270 272 266 261 259 259 253 252 248 230 228 233 235 236 241 241 231 236
293 293 291 291 298 302 303 315 321 321 286 279 288 283 278 267 267 276 277 270 273 274 286 283 275 271 258 250 257 253 247 263 252 230 224 226 229 247 246 241 230 223 227
293 287 288 287 291 300 304 315 319 315 283 281 281 285 277 279 276 284 284 275 265 267 278 277 292 286 272 261 258 252 245 236 212 223 223 220 232 222 239 229 214 211 211
287 287 286 284 289 306 309 315 316 307 279 278 278 284 293 285 277 285 283 271 266 249 216 258 307 321 299 281 262 255 227 229 220 223 233 231 206 178 129 125 162 171 195
Wind_Speed_850mb
18 18 22 25 27 30 31 32 36 41 33 36 33 31 31 33 34 34 34 40 37 33 28 29 36 36 35 35 37 38 38 39 41 43 45 47 47 51 53 52 51 52 53
23 26 30 34 36 39 51 44 46 45 43 39 41 37 35 34 35 36 38 39 43 41 39 35 35 37 41 42 39 38 38 38 39 41 42 45 46 52 58 59 56 55 55
37 41 44 38 40 45 47 49 46 46 56 55 42 44 38 38 33 33 32 33 35 40 46 48 43 41 43 38 39 40 38 38 39 40 37 36 36 43 55 60 62 59 58
36 40 41 36 35 38 41 43 47 51 51 53 56 52 48 49 39 35 37 34 32 33 37 45 49 47 44 43 41 45 43 39 38 36 36 33 31 34 44 52 59 63 61
33 38 28 31 36 39 45 51 52 49 51 46 44 46 50 52 42 41 33 31 28 33 32 34 50 55 55 51 47 45 44 48 43 37 37 37 32 32 38 45 51 58 63
30 29 25 28 30 33 37 42 43 43 49 50 50 62 62 51 56 58 49 34 31 31 27 27 32 43 56 60 59 55 47 45 46 41 39 39 38 33 32 39 45 52 59
16 15 16 22 27 29 35 32 36 40 41 45 42 45 53 62 65 71 64 37 30 29 26 26 28 28 35 43 60 61 56 48 47 41 41 37 40 35 34 33 40 46 53
14 13 22 19 26 28 32 31 36 44 47 49 50 46 50 55 54 74 83 29 21 24 18 22 25 29 30 34 36 44 60 58 52 43 44 39 37 36 36 35 37 42 47
16 18 24 26 27 29 34 38 37 40 49 51 47 43 27 35 39 47 41 55 22 23 28 28 28 28 29 30 34 38 51 59 57 50 46 42 40 37 36 35 35 40 40
17 17 26 30 29 36 30 34 36 39 42 50 49 46 46 39 33 19 28 41 66 42 34 37 28 31 32 30 30 38 41 50 58 53 47 43 43 36 31 33 33 34 38
16 16 23 28 36 27 29 33 35 37 39 42 46 41 37 35 38 35 35 23 26 29 30 33 25 27 30 28 27 29 31 46 50 52 46 40 37 31 29 33 32 30 32
17 20 31 31 27 28 31 35 37 36 36 37 38 34 31 29 26 25 28 32 28 23 25 26 25 22 26 22 23 29 25 37 43 50 45 41 33 28 25 32 29 27 29
16 19 34 29 26 31 33 34 34 34 34 35 36 30 28 25 22 26 28 28 23 21 18 22 20 21 21 18 18 26 27 42 44 51 41 38 33 28 24 25 23 28 31
17 27 26 27 31 30 30 34 30 30 30 29 28 24 20 21 23 25 25 21 20 22 15 19 13 16 12 13 18 25 26 39 45 40 38 43 35 31 26 24 23 24 23
22 21 25 24 26 25 28 31 29 29 27 25 22 22 20 19 25 24 19 19 19 19 16 12 12 12 7 8 17 12 21 28 39 43 35 42 52 37 35 35 32 30 26
27 24 25 21 24 24 23 27 27 26 25 23 16 21 21 20 19 21 19 19 17 20 23 23 22 21 20 17 10 14 17 27 35 41 43 41 40 38 41 40 38 37 34
27 26 24 24 24 25 24 25 24 24 25 23 22 20 22 21 21 20 17 18 19 22 27 28 26 22 23 19 16 16 16 17 23 34 39 40 41 41 41 41 43 44 41
26 26 25 25 26 26 26 25 25 25 27 27 27 25 23 22 25 25 25 25 29 30 33 36 28 26 22 20 15 17 18 19 21 24 30 41 42 44 45 43 42 40 42
26 27 25 27 28 29 29 28 27 27 29 29 27 27 25 25 27 22 26 27 26 28 32 34 33 24 20 21 16 15 17 20 20 27 26 29 38 40 41 43 42 43 42
28 29 27 28 30 31 31 28 33 32 29 29 30 26 23 21 23 31 31 30 30 27 31 32 31 27 22 24 17 15 19 17 19 22 24 26 30 36 36 35 36 38 39
30 31 31 30 31 31 30 39 42 36 32 28 26 23 21 17 14 14 20 23 20 22 21 25 27 22 27 25 23 20 23 20 21 22 23 26 25 31 35 39 41 42 43
31 32 32 34 34 32 37 43 49 50 33 25 25 20 18 18 14 11 12 13 15 19 21 28 28 29 29 27 26 22 17 22 25 29 29 27 26 25 31 30 37 43 45
35 37 37 34 36 35 40 44 49 52 30 24 26 23 22 18 24 15 20 17 18 21 25 29 29 29 28 22 18 22 28 24 28 31 31 34 42 32 40 45 50 52 46
38 39 38 37 36 36 43 43 48 47 21 24 24 19 17 16 22 22 19 20 22 25 26 23 24 28 29 28 27 25 24 20 16 21 24 22 26 23 22 25 27 34 42
41 39 38 37 37 38 42 43 44 29 20 22 16 15 15 14 26 27 29 25 21 24 19 17 15 16 17 22 25 21 20 17 18 20 21 21 19 15 13 17 19 21 27
47 38 37 38 39 44 41 38 37 23 22 17 19 16 20 17 21 19 14 13 12 10 9 10 11 10 10 16 19 19 21 21 26 20 22 21 21 24 15 15 17 22 24
Wind_Direction_850mb
279 282 281 286 288 293 288 278 289 280 285 285 282 280 280 277 277 275 272 276 275 265 255 246 239 235 237 238 241 243 248 252 256 259 260 260 256 249 245 237 232 231 229
277 282 288 289 289 285 278 283 283 281 275 275 273 274 275 277 274 274 272 269 274 258 257 257 248 244 244 243 243 246 249 253 256 258 260 261 257 246 242 240 235 233 231
280 285 286 290 289 287 290 286 280 278 276 274 263 268 266 269 274 271 268 272 265 271 256 254 254 249 243 242 244 246 247 253 251 252 254 260 263 253 241 238 236 233 234
285 293 283 284 282 294 303 296 291 284 282 279 272 258 255 268 262 252 264 261 267 254 260 260 246 243 244 242 246 247 246 248 255 258 253 255 265 262 248 241 237 235 234
293 296 289 297 300 303 301 297 297 292 288 283 281 276 264 267 259 260 248 253 269 268 249 248 252 244 244 245 246 249 256 250 253 259 257 250 257 264 255 244 238 237 235
299 301 306 305 308 309 305 304 306 301 296 289 279 275 268 250 268 260 245 245 252 260 267 255 255 255 246 244 245 245 252 253 246 256 259 258 251 254 259 250 242 239 238
314 329 321 318 322 321 317 321 317 312 303 299 295 288 281 273 271 259 302 234 245 259 265 263 254 256 251 260 245 242 241 245 245 249 257 262 247 250 258 257 246 243 240
332 337 324 333 319 325 319 313 318 313 304 302 297 292 290 293 291 284 287 302 245 255 274 278 267 255 249 248 253 249 237 237 240 245 249 253 242 254 259 257 250 244 242
331 331 327 327 327 330 316 319 315 315 309 303 295 284 291 285 299 302 304 307 344 279 281 291 279 262 257 250 250 258 246 235 236 240 244 246 249 259 265 252 250 244 244
328 330 332 330 332 332 321 320 317 317 313 306 301 295 283 279 287 305 305 284 279 287 291 292 275 268 260 257 251 247 238 236 230 237 234 240 247 258 256 247 247 245 242
341 340 341 335 331 336 325 324 324 319 322 314 308 306 297 286 273 266 292 282 275 255 286 290 281 264 261 257 251 255 255 234 226 219 226 233 250 250 243 249 247 241 244
329 322 336 337 338 334 329 333 326 327 323 322 311 302 291 288 280 275 273 279 267 289 286 284 276 269 262 256 250 248 247 224 212 213 217 225 232 243 244 246 240 241 244
321 318 336 336 340 336 336 332 330 335 328 320 309 304 297 292 300 290 280 283 287 292 285 282 273 265 264 257 240 244 228 212 205 209 212 237 237 234 242 244 247 246 245
328 324 334 335 337 339 336 339 340 331 327 327 322 305 308 293 294 296 289 297 296 279 289 270 264 262 266 257 236 241 235 219 213 210 231 238 238 237 238 243 252 249 253
322 316 330 330 331 328 335 342 340 335 326 332 329 313 314 303 292 291 297 289 294 302 295 313 287 281 276 227 224 226 229 238 224 226 228 228 226 235 236 240 244 250 249
328 324 326 323 325 321 324 329 336 331 332 329 324 310 311 301 287 278 272 276 280 281 288 290 297 300 292 278 249 224 236 233 231 230 227 226 228 234 237 245 247 245 249
323 321 322 321 322 321 320 320 327 330 323 323 320 315 303 300 286 283 277 272 275 280 274 281 287 293 290 283 249 234 239 236 245 243 238 237 237 235 237 239 244 246 245
320 319 315 317 319 319 318 317 319 317 317 311 308 306 300 292 281 273 268 267 265 262 269 278 282 287 287 272 260 243 221 231 230 247 238 235 234 234 238 239 242 238 237
313 318 311 311 315 315 317 318 317 314 310 301 299 297 296 293 285 276 266 262 265 270 269 280 284 277 271 274 259 249 231 224 227 236 237 232 233 234 238 241 241 235 233
303 314 310 306 307 311 312 315 314 312 309 302 295 289 289 289 284 272 263 260 262 263 262 277 280 277 269 265 259 251 245 230 227 236 236 225 238 235 235 237 235 234 234
295 302 307 306 303 306 315 307 318 313 305 296 290 286 287 283 313 308 287 271 269 262 260 267 271 269 263 259 249 247 250 247 232 226 232 234 237 246 246 241 239 236 238
293 293 299 303 302 303 297 317 320 322 304 292 281 277 281 289 293 298 297 282 277 267 274 269 269 264 261 258 254 252 258 256 249 242 237 233 224 237 230 225 234 236 241
295 294 295 298 299 298 302 319 320 322 293 279 282 277 274 272 269 266 299 286 275 282 281 275 269 270 272 266 261 259 259 253 252 248 230 228 233 235 236 241 241 231 236
293 293 291 291 298 302 303 315 321 321 286 279 288 283 278 267 267 276 277 270 273 274 286 283 275 271 258 250 257 253 247 263 252 230 224 226 229 247 246 241 230 223 227
293 287 288 287 291 300 304 315 319 315 283 281 281 285 277 279 276 284 284 275 265 267 278 277 292 286 272 261 258 252 245 236 212 223 223 220 232 222 239 229 214 211 211
287 287 286 284 289 306 309 315 316 307 279 278 278 284 293 285 277 285 283 271 266 249 216 258 307 321 299 281 262 255 227 229 220 223 233 231 206 178 129 125 162 171 195